Lapse_Rate
5.8 5.8 5.8 5.8 5.9 5.9 5.9 5.9 6.0 6.0 6.1 6.2 6.3 6.4 6.5 6.5 6.5 6.6 6.6 7.2 7.2 7.2 7.1 7.1 7.2 5.9 5.6 6.0 5.7 6.2 6.4 5.6 5.5 6.4 6.0 6.1 6.1 5.9 6.1 6.0 5.8 5.5 5.8 5.9 5.8
5.8 5.8 5.8 5.8 5.8 5.9 5.9 5.9 5.9 6.0 6.1 6.2 6.3 6.4 6.5 6.5 6.6 6.6 6.7 6.9 7.2 7.4 7.1 7.2 6.1 5.9 6.2 5.7 5.8 6.4 6.0 6.4 6.0 6.1 5.9 6.3 6.1 6.0 6.0 5.8 5.7 5.5 5.1 6.1 5.7
5.7 5.8 5.8 5.8 5.8 5.9 5.9 5.8 5.9 5.9 5.9 6.0 6.2 6.4 6.4 6.5 6.7 6.4 6.5 6.8 7.1 7.3 7.2 6.4 6.6 6.8 7.0 7.1 6.6 6.6 6.8 6.7 6.3 6.0 6.0 6.2 6.3 6.0 5.9 5.7 5.8 5.6 5.9 6.2 5.9
5.5 5.6 5.7 5.8 5.8 5.9 5.9 6.0 6.1 6.0 6.0 6.0 6.1 6.2 6.4 6.6 6.5 6.4 6.3 6.6 7.1 7.2 7.2 6.5 6.9 7.0 7.4 8.4 8.1 7.6 7.3 6.8 6.8 6.5 6.6 6.1 6.2 6.0 6.1 5.7 5.4 5.6 6.0 6.2 6.1
5.2 5.3 5.4 5.5 5.6 5.8 5.8 5.9 6.0 6.2 6.2 6.2 6.2 6.2 6.2 6.3 6.6 6.6 6.3 6.6 7.1 7.3 7.4 6.7 7.2 7.9 7.4 8.0 9.1 8.4 7.0 7.2 6.8 6.5 6.3 6.3 6.6 6.1 6.1 6.2 5.8 5.5 5.8 5.9 5.5
5.0 5.1 5.2 5.3 5.4 5.6 5.7 5.8 5.9 6.1 6.1 6.2 6.2 6.3 6.2 6.3 6.1 6.3 6.3 6.4 7.0 7.2 7.4 6.9 7.3 8.1 7.6 7.6 9.2 8.6 7.8 7.4 6.9 6.6 6.9 5.8 5.9 6.8 6.2 6.2 5.3 5.5 5.7 5.1 5.1
5.0 5.0 5.1 5.2 5.3 5.4 5.6 5.6 5.7 5.9 6.0 6.1 6.2 6.2 6.2 6.8 6.0 6.3 6.5 6.6 6.7 7.2 7.4 7.3 7.2 7.2 8.0 8.1 9.3 8.5 7.5 7.2 7.6 7.9 6.7 6.4 6.6 6.2 7.0 6.2 5.5 5.3 5.1 5.1 5.1
5.1 5.1 5.1 5.0 5.1 5.2 5.3 5.5 5.6 5.8 5.9 5.9 6.0 6.1 6.3 6.8 6.0 6.1 6.0 6.7 6.7 6.9 6.9 7.4 7.4 7.3 7.3 7.4 8.3 9.2 8.2 7.2 7.2 6.7 6.7 6.8 6.1 6.1 6.6 6.2 5.8 5.3 5.1 5.1 5.2
4.9 5.0 5.1 5.1 5.1 5.1 5.2 5.3 5.4 5.7 5.8 5.8 5.8 5.5 6.2 6.5 6.4 6.9 6.5 6.2 6.4 6.7 6.8 7.0 7.0 7.0 7.4 7.9 8.2 9.3 9.3 7.6 6.8 6.3 5.5 5.5 6.0 6.6 7.2 6.5 6.0 5.4 5.3 5.2 5.3
4.8 4.9 5.0 5.1 5.1 5.1 5.3 5.3 5.3 5.4 5.5 5.6 5.6 5.2 6.4 6.6 6.9 7.1 6.8 6.6 6.4 6.7 6.7 6.7 7.1 7.3 7.6 8.0 8.6 9.4 9.3 8.0 8.3 7.0 5.8 5.9 6.5 7.4 6.7 6.8 6.5 6.2 5.7 5.4 5.3
4.7 4.9 5.1 5.3 5.3 5.2 5.3 5.4 5.3 5.2 5.1 5.9 5.7 5.6 6.1 6.3 6.0 6.1 6.8 6.6 6.6 6.7 6.5 6.7 7.2 7.6 7.8 8.1 8.8 9.3 8.5 8.2 7.4 7.6 7.6 6.2 5.9 6.5 6.7 7.2 7.0 6.5 6.1 5.8 5.6
5.1 5.1 5.3 5.5 5.7 5.6 5.5 5.2 5.4 5.2 5.4 5.7 6.1 5.4 5.9 5.6 5.9 6.6 6.7 6.7 6.7 6.7 6.9 7.2 7.1 7.5 8.1 8.3 9.0 9.4 9.4 8.6 7.7 8.1 7.3 7.1 6.2 7.1 8.2 7.7 7.1 6.7 6.1 6.0 5.8
5.5 5.4 5.5 5.7 6.0 5.9 5.8 5.7 5.8 5.5 5.0 6.3 6.1 5.7 6.3 5.6 6.0 6.5 6.6 6.8 6.9 6.7 7.2 7.1 7.1 7.7 8.1 8.4 9.4 9.5 9.6 9.0 8.1 8.4 8.7 8.0 6.8 7.3 7.7 8.7 7.5 7.3 6.6 6.1 6.0
5.9 5.8 5.9 6.0 6.2 5.9 5.3 6.1 5.9 5.7 5.1 6.5 6.5 6.3 6.3 5.9 6.0 6.4 6.7 6.8 7.0 7.2 7.4 7.4 7.6 8.3 8.4 8.5 9.5 9.6 9.6 9.5 9.1 8.5 9.3 9.4 9.3 8.6 8.0 7.9 8.3 7.6 6.9 6.6 6.2
6.3 6.3 6.3 6.4 6.5 6.2 6.0 6.2 6.4 6.1 7.0 8.1 7.1 6.4 6.5 6.3 7.0 7.0 7.0 7.1 7.0 7.2 7.7 7.1 7.7 8.4 9.4 8.7 9.3 9.5 9.6 9.5 9.6 9.5 9.5 9.4 9.6 9.0 8.7 8.2 7.7 8.0 7.5 7.0 6.2
6.7 6.6 6.7 6.8 6.9 6.8 6.8 6.8 6.8 6.7 7.8 8.9 7.7 7.1 7.1 6.7 7.0 7.6 7.1 7.0 7.4 7.4 7.7 7.6 8.4 8.5 8.9 9.6 9.4 9.6 9.6 9.6 8.9 9.3 9.7 9.7 9.6 8.7 8.9 8.6 8.4 7.5 7.7 7.3 6.6
7.0 7.0 6.9 6.9 6.8 7.1 7.2 7.1 7.2 7.8 9.2 9.5 9.3 8.5 7.8 7.6 7.5 7.8 7.6 7.3 7.2 7.3 7.5 7.8 8.0 8.7 9.5 9.6 9.6 9.5 9.5 9.5 9.3 9.5 9.7 9.7 9.7 9.5 8.5 8.9 9.3 8.6 8.0 7.7 7.1
7.4 7.3 7.1 7.1 7.1 7.2 7.2 6.8 7.6 8.5 9.4 9.7 9.5 9.6 9.4 8.5 8.5 8.3 8.4 7.8 7.6 7.6 8.4 8.1 8.3 8.2 8.8 9.5 9.6 9.6 9.6 9.6 9.1 9.2 9.8 9.5 9.6 9.7 9.0 9.1 8.8 8.2 8.4 7.9 7.9
7.5 7.5 7.3 7.3 7.2 7.3 6.7 7.4 8.2 8.9 9.3 9.3 9.6 9.3 9.1 9.2 9.6 9.7 8.8 8.7 8.3 8.1 8.2 8.8 8.0 9.2 8.9 9.6 9.7 9.5 9.6 9.4 9.6 9.6 9.8 9.6 9.6 9.4 9.2 8.7 9.2 9.2 8.9 8.6 8.2
7.5 7.3 6.7 7.0 7.3 7.3 7.0 7.6 8.5 9.4 8.6 8.6 8.5 9.1 9.7 9.6 9.6 9.7 9.7 9.6 9.2 9.3 8.5 8.5 9.2 9.4 9.6 9.4 9.7 9.5 9.4 9.6 9.6 9.4 9.3 9.6 9.7 9.4 8.9 9.5 9.1 9.0 9.0 9.3 9.2
7.5 7.3 7.3 7.3 7.3 7.0 7.6 8.6 9.5 9.3 8.1 8.1 8.5 8.8 9.6 9.6 9.7 9.7 9.7 9.7 9.7 9.6 9.6 8.5 9.4 9.6 9.7 9.7 9.6 9.6 9.8 9.5 9.6 9.7 9.7 9.3 9.7 8.7 9.3 8.7 9.6 9.6 9.4 8.7 8.3
7.8 7.8 7.3 7.6 7.3 8.0 8.9 8.9 8.4 8.6 8.1 8.2 8.2 8.2 8.6 9.6 9.6 9.3 9.4 8.8 9.3 9.3 9.3 9.6 9.6 9.6 9.6 9.7 9.7 9.7 9.6 9.6 9.5 9.0 9.7 9.6 9.6 9.7 8.6 9.1 9.7 9.1 8.9 8.6 7.8
7.8 7.9 7.5 7.4 7.9 8.4 7.9 8.3 8.6 8.1 8.5 8.3 8.5 8.5 8.8 8.9 9.4 9.3 8.8 8.6 8.6 8.8 8.8 9.0 9.2 9.5 9.4 9.6 9.7 9.7 9.7 9.5 9.6 9.1 9.3 9.7 9.1 9.2 8.8 9.2 9.4 9.3 8.8 8.2 7.8
7.9 8.4 8.4 8.2 8.3 8.3 8.2 8.4 8.7 8.4 8.0 8.3 8.3 8.8 9.0 8.7 9.1 9.0 8.6 8.3 8.3 8.7 8.8 8.7 8.4 9.0 9.1 9.5 9.7 9.7 9.7 9.7 9.7 9.8 9.2 9.5 9.3 9.5 9.2 9.2 8.8 9.2 8.9 7.9 8.0
7.5 7.9 7.9 8.1 7.9 7.8 7.9 8.0 8.3 8.2 7.9 8.2 8.4 8.5 8.8 8.9 8.9 9.0 9.3 8.2 8.6 8.7 8.9 8.6 8.9 9.4 8.8 9.1 9.3 9.7 9.7 9.7 9.7 9.6 9.8 9.6 9.5 9.7 8.8 9.1 8.8 8.6 8.1 7.7 7.3
7.3 7.5 7.3 7.9 7.6 7.6 7.4 7.4 7.1 7.5 7.3 7.8 7.6 7.8 9.3 9.5 9.0 8.9 9.5 9.4 9.2 8.9 8.8 9.0 9.0 9.1 8.8 9.2 9.8 9.5 9.7 9.7 9.7 9.7 9.6 9.5 9.7 8.8 9.3 9.1 8.3 8.5 7.8 7.5 7.3
7.4 7.1 7.0 7.4 7.6 7.0 6.7 6.7 6.7 6.7 7.2 7.2 7.4 6.6 7.7 7.9 8.0 8.1 8.7 8.6 9.1 9.4 9.0 9.2 9.6 9.4 8.8 9.4 9.8 9.7 9.5 9.7 9.7 9.7 9.7 9.6 8.2 8.3 8.5 8.4 7.8 7.5 7.0 7.2 7.8
Wind_Speed
20 20 21 21 22 22 23 23 23 24 24 24 23 22 23 25 25 7 11 3 5 24 8 13 16 16 13 14 9 9 4 3 6 4 11 14 13 9 9 7 9 9 23 22 19
21 21 21 22 23 22 22 22 22 22 23 24 23 22 22 23 11 16 2 14 27 22 12 16 14 13 10 5 5 5 1 2 11 3 7 8 6 16 12 14 10 16 22 22 19
21 21 22 23 23 23 23 23 23 23 22 22 23 23 20 17 11 11 6 15 21 22 16 13 13 8 16 11 7 5 5 7 5 6 21 16 11 11 11 3 15 23 24 22 20
22 22 23 23 24 25 25 25 24 26 24 22 21 23 23 7 6 6 10 13 15 17 14 16 11 12 14 11 18 6 6 7 4 7 10 13 13 9 12 12 2 20 22 21 20
22 22 23 24 25 26 26 26 26 26 25 24 19 16 10 9 17 9 10 11 12 13 15 14 13 11 12 18 9 3 14 5 11 3 5 13 14 7 11 14 5 20 20 20 18
23 24 24 25 25 25 25 25 26 26 24 24 18 12 7 16 6 13 9 12 12 15 16 17 13 6 9 21 12 10 11 2 11 13 11 4 11 20 19 21 18 20 20 19 18
23 24 25 26 27 27 26 26 26 25 25 21 15 7 12 19 5 13 12 12 14 17 17 15 13 15 14 17 9 14 9 12 15 16 12 15 2 11 11 19 18 18 17 18 17
24 24 25 27 28 28 28 28 27 25 22 17 8 8 9 14 20 17 12 14 14 19 17 18 9 11 15 17 19 15 10 5 15 17 9 15 7 12 17 17 18 17 15 17 18
24 26 27 28 29 31 31 31 28 22 14 12 7 9 15 1 16 17 15 17 17 17 13 13 8 13 17 17 15 15 12 13 1 15 5 13 4 15 18 9 17 17 13 14 17
26 27 28 29 31 31 34 35 16 8 9 10 12 10 18 15 12 17 17 17 16 18 16 14 12 14 15 15 15 9 2 9 11 2 12 12 4 20 22 15 14 17 20 16 17
28 28 29 30 31 30 18 8 5 6 12 15 6 13 15 20 3 13 19 19 17 19 21 19 15 18 21 20 23 17 14 9 13 16 10 3 15 16 20 17 19 16 16 17 19
27 29 29 30 32 32 11 7 8 7 10 17 23 22 18 4 7 14 13 23 20 22 20 20 22 23 23 23 22 19 13 14 10 17 14 21 22 26 29 26 24 23 18 19 20
28 29 30 32 32 15 11 7 8 10 8 18 22 23 20 13 14 14 20 21 22 24 25 24 25 23 23 23 23 21 19 13 12 15 22 23 22 26 20 21 21 22 21 19 20
28 29 30 32 9 11 5 5 7 6 6 15 20 19 20 20 21 19 18 21 26 26 27 26 25 26 23 23 23 20 17 12 19 19 7 11 8 22 21 17 16 20 22 20 20
28 27 28 13 11 6 8 7 8 7 6 6 11 5 12 22 12 23 22 19 25 26 22 28 28 27 28 25 25 21 19 13 16 10 12 9 9 4 15 13 18 15 21 22 21
29 27 27 4 6 11 11 8 7 6 10 8 10 10 14 18 20 11 22 20 18 25 26 29 22 28 28 25 24 22 19 14 11 15 13 13 12 14 19 23 23 20 18 20 21
30 28 17 11 8 11 8 7 6 9 11 6 12 12 15 16 20 21 18 23 19 19 25 26 31 27 29 28 23 24 18 10 12 12 13 15 13 7 11 16 12 20 20 18 21
32 33 10 9 13 8 7 8 10 11 19 8 4 6 12 18 22 22 19 17 24 26 17 22 24 30 23 32 26 25 22 14 13 13 15 15 16 9 19 9 7 17 11 17 18
37 8 8 11 3 6 7 9 13 15 12 17 5 11 14 16 18 22 25 21 21 24 26 22 30 21 30 27 28 25 20 22 23 20 12 13 18 17 17 13 12 18 18 18 28
8 10 11 7 4 6 7 14 20 11 9 9 11 16 15 17 20 17 16 22 23 23 25 26 21 28 26 29 28 30 15 21 16 21 14 18 5 8 10 14 14 11 9 4 6
5 6 6 5 4 7 9 16 9 9 6 9 14 18 20 19 9 14 21 19 24 18 26 26 24 22 27 27 28 22 22 22 16 17 15 15 11 22 7 14 13 13 14 10 9
10 3 6 4 6 8 11 3 2 11 11 10 13 16 20 16 12 18 6 19 7 1 8 13 9 17 22 19 29 29 23 24 12 20 14 16 15 13 16 18 12 13 11 13 11
5 3 6 4 7 9 4 21 4 7 13 10 13 13 17 17 11 17 8 6 9 5 2 7 14 13 20 22 26 31 23 23 21 19 18 15 16 14 8 12 8 17 17 13 9
5 1 2 6 2 10 14 13 14 2 9 14 14 17 12 12 14 18 6 5 8 8 9 2 14 18 18 18 20 26 29 26 24 17 18 19 20 5 19 14 20 11 12 12 8
4 5 4 7 10 12 11 13 14 11 8 19 8 16 11 14 15 14 16 13 6 2 7 8 15 17 28 27 16 23 23 23 27 24 21 18 19 10 15 9 11 14 11 11 12
6 6 9 6 5 10 8 11 14 14 16 11 18 28 11 16 7 18 10 7 8 10 11 11 12 16 20 22 15 21 24 25 30 21 22 24 18 23 24 20 18 10 10 11 14
7 11 7 6 6 7 10 11 13 13 14 7 15 18 10 18 18 13 14 6 6 6 10 11 11 10 17 18 12 19 17 23 20 19 16 18 14 18 18 17 20 18 17 14 13
Wind_Direction
350 346 344 341 340 338 336 334 333 331 329 326 323 320 320 321 312 244 271 93 169 172 187 175 220 239 245 247 234 342 336 76 303 183 128 138 129 122 152 144 127 101 135 142 151
348 345 341 339 337 335 332 329 327 327 325 322 320 319 323 323 295 277 145 145 147 167 189 187 208 227 259 262 11 35 295 200 148 252 195 133 188 156 173 137 118 133 128 136 151
346 343 339 336 335 332 329 327 324 322 320 319 317 317 320 318 285 256 162 152 160 177 218 224 263 243 276 117 151 168 247 173 148 248 224 163 163 170 132 148 142 133 141 151 156
345 341 338 335 332 330 328 325 322 320 318 316 317 317 317 273 267 67 166 171 181 195 241 252 260 269 306 289 180 163 152 198 148 157 145 166 151 156 181 146 145 141 147 157 163
342 339 335 332 329 327 324 321 318 316 313 311 314 318 311 244 251 114 157 161 192 213 230 248 252 231 284 308 278 154 151 185 167 162 67 360 169 138 152 124 196 145 156 162 168
337 335 332 329 326 322 319 317 314 311 307 304 308 311 247 255 232 143 159 163 199 207 237 248 255 283 260 262 284 123 117 130 174 148 141 128 255 163 160 158 161 153 165 168 171
334 332 329 327 324 320 317 313 310 305 301 296 298 262 263 243 284 160 192 200 214 207 244 245 258 284 291 298 308 117 101 297 260 165 168 187 291 7 127 136 143 162 169 172 169
332 330 328 325 322 320 316 311 307 301 295 287 282 229 260 261 257 255 244 215 220 237 246 266 276 270 279 287 289 256 149 118 300 34 353 85 17 299 299 144 154 166 172 175 168
331 330 328 325 322 320 316 309 299 291 269 277 251 228 260 197 233 235 223 233 218 238 251 261 284 268 269 249 253 250 217 148 113 356 112 333 192 320 287 202 160 165 171 183 171
332 329 327 325 322 321 319 298 278 304 230 247 256 261 249 237 222 226 232 248 235 222 231 233 243 254 246 253 243 256 156 106 121 280 74 290 239 187 250 179 168 165 172 185 176
331 329 326 324 320 320 330 317 217 196 232 232 231 216 299 195 359 230 211 223 235 242 227 224 235 235 240 233 260 281 165 182 174 192 128 232 272 282 274 193 170 174 177 178 178
329 327 324 323 318 314 291 271 49 329 294 254 249 257 255 205 257 225 234 212 213 227 223 229 226 238 243 251 246 252 253 155 178 236 141 168 219 209 227 237 171 171 178 184 176
329 325 324 322 317 297 250 328 329 315 270 268 239 237 231 205 231 248 209 223 216 222 229 228 230 225 244 248 254 255 253 141 178 230 219 173 191 221 220 233 165 173 171 185 182
326 323 324 326 300 325 280 24 294 319 277 255 210 222 219 224 239 238 248 212 225 227 226 238 231 239 220 244 248 250 252 247 192 184 216 214 218 190 197 187 194 174 168 181 184
324 320 321 324 312 295 0 316 336 270 278 101 145 125 206 208 233 201 225 230 229 222 228 231 236 230 241 223 244 251 257 226 253 263 276 180 257 187 189 178 196 206 172 178 182
322 320 327 216 224 264 314 298 266 234 244 163 137 203 220 202 228 245 197 234 227 242 234 241 230 238 238 241 229 251 252 253 282 282 247 248 256 168 185 194 185 183 188 176 175
318 315 312 304 289 341 308 264 226 244 211 223 186 202 210 204 221 228 188 206 218 219 232 233 237 238 237 240 230 230 242 223 236 245 243 231 234 170 100 291 206 170 185 177 172
317 310 261 243 275 286 270 236 248 255 243 265 349 303 214 215 215 216 214 213 218 234 223 227 226 228 231 233 235 223 221 232 222 241 238 224 245 211 164 160 134 158 174 174 187
314 266 236 217 276 272 252 234 234 250 359 357 344 264 263 257 257 201 220 227 221 213 235 224 234 224 231 236 231 238 218 230 244 231 255 251 213 240 126 175 183 159 158 163 222
316 292 232 129 219 258 255 262 283 323 346 320 291 289 274 250 230 233 237 217 240 219 219 243 246 231 221 230 239 232 234 223 234 250 245 257 224 276 315 193 197 172 173 111 118
253 242 96 195 232 252 250 258 281 35 8 305 284 278 284 273 258 233 241 243 224 253 209 223 244 244 225 211 225 222 225 236 245 237 235 248 249 199 100 323 208 200 129 94 50
275 285 104 257 251 233 248 218 345 318 297 267 269 279 290 287 288 278 199 24 41 195 294 222 251 239 250 234 214 231 223 228 228 254 235 256 267 145 168 200 156 139 114 94 65
276 325 124 238 282 328 107 288 299 296 288 279 264 260 269 281 285 255 44 7 336 261 296 289 235 249 251 257 212 215 216 227 229 231 250 249 248 133 150 302 36 135 112 93 65
280 309 190 207 246 346 348 332 312 123 295 290 302 295 278 271 269 268 127 274 274 276 18 332 259 234 242 251 197 201 215 219 228 230 224 247 248 183 148 199 169 134 88 96 74
267 30 359 340 355 342 308 319 310 358 341 316 272 264 268 266 256 246 258 170 226 192 277 236 251 254 242 258 281 202 211 231 233 240 236 233 236 231 155 128 49 88 77 62 63
348 349 338 324 18 334 32 37 342 341 327 322 317 340 280 252 349 343 287 238 190 201 229 237 241 259 267 254 253 286 212 208 227 225 234 244 246 37 23 114 148 111 100 67 54
10 336 282 331 22 359 15 342 336 329 302 333 357 335 337 355 330 325 320 211 9 187 215 249 251 271 250 245 207 227 257 200 225 234 248 233 55 47 41 33 50 53 59 43 27